International Skating Union - Official Site

ISU World Cup Heerenveen
December 12-14, 2014

Draw | Lap Times | Index | World Cup

Referee: Daniel  CABELDUC  (SWE)
Starter: Jyrki  JÄÄSKELÄINEN  (FIN)
StartTime: EndTime: Air Temp: Ice Temp: Humidity:
17:16 17:24 14℃ -7.3℃ 30%
Result Mass Start Ladies
Rankings as of Dec 14 2014 6:21PM
Rank: No.: Name: Nation: Time: Behind: Points:
1 5 Ivanie  Blondin CAN CAN 8:24.01 100
2 55 Bo-Reum  Kim KOR KOR 8:24.03 0.02 80
3 76 Irene  Schouten NED NED 8:24.21 0.20 70
4 25 Martina  Sábliková CZE CZE 8:24.53 0.52 60
5 35 Claudia  Pechstein GER GER 8:28.82 4.81 50
6 47 Miho  Takagi JPN JPN 8:27.66 3.65 45
7 6 Kali  Christ CAN CAN 8:27.76 3.75 40
8 48 Nana  Takagi JPN JPN 8:24.49 0.48 36
9 97 Natalya  Voronina RUS RUS 8:26.58 2.57 32
10 38 Francesca  Lollobrigida ITA ITA 8:27.89 3.88 28
11 54 Ye Jin  Jun KOR KOR 8:24.63 0.62 24
12 33 Bente  Kraus GER GER 8:25.57 1.56 21
13 2 Jelena  Peeters BEL BEL 8:26.66 2.65 18
14 27 Elena Moeller  Rigas DEN DEN 8:26.98 2.97 16
15 72 Rixt  Meijer NED NED 8:27.00 2.99 14
16 26 Nikola  Zdráhalova CZE CZE 8:27.27 3.26 12
17 84 Aleksandra  Goss POL POL 8:27.37 3.36 10
18 16 Jing  Liu CHN CHN 8:27.49 3.48 8
19 28 Saskia  Alusalu EST EST 8:28.38 4.37 6
20 85 Urszula  Wlodarczyk POL POL 8:32.49 8.48 5
21 3 Tatyana  Mikhailova BLR BLR 8:32.63 8.62 4
22 19 Xin  Zhang CHN CHN 8:34.25 10.24 3
23 1 Vanessa  Bittner AUT AUT 8:39.37 15.36 2
24 37 Yvonne  Daldossi ITA ITA 8:55.37 31.36 1